User: anonymous   Login
Location: Plymouth
(43.7570°N, 71.6890°W)
Time: 01:40:29
(UTC-05:00)
Language:

COSMOS 2406 - Orbit

View from above orbital plane
View from above orbital plane
View from above satellite
View from above satellite

Ground track
Ground track

The orbit data is extracted from the following two-line orbital elements,

1 28352U 04021A   14352.74022970 -.00000228  00000-0 -99931-4 0  4661
2 28352 071.0013 227.3778 0013283 031.8381 024.4830 14.11378087542249
Epoch (UTC): 18 December 2014 17:45:55
Eccentricity: 0.0013283
inclination: 71.0013°
perigee height: 845 km
apogee height: 864 km
right ascension of ascending node: 227.3778°
argument of perigee: 31.8381°
revolutions per day: 14.11378087
mean anomaly at epoch: 24.4830°
orbit number at epoch: 54224

The dashed part of the orbit path shows where the satellite is in the earth's shadow,  

DLR